NIEUW!!! Volg onze weer- en natuurfoto's op Instagram @ weerstationmaaseik.be

WS Maaseik 1 Meer informatie WS Maaseik 1


WS Maaseik 2 Meer informatie WS Maaseik 2


Regen radar Meer informatie rain snow radar


Bezoek onze andere website:

Vorige versie
weerstation Maaseik


Bezoek ook eens deze sites:

Weerstation Geleen



Het weer levert geen direct gevaar op.    Er zijn geen waarschuwingen afgegeven.

15 daagse weersverwachting Eindhoven (NL)

  • Overzicht
  • Per uur
  • 15 dagen
  • Extra
  • Vergelijk
  • Kaarten
  • Dagkaart
  • Meer »
  • Info
  • Statistieken
  • Directe link
    Temp 6h Neerslag Wind  
 07:33     18:10    Daglengte: 10:37 Vandaag
19:00
1.9 mm
4
 07:30     18:12    Daglengte: 10:42 Morgen
01:00
8.4 mm
6
07:00
11.2 mm
6
13:00
9.9 mm
7
19:00
9.1 mm
5
 07:28     18:14    Daglengte: 10:46 Donderdag 27 Feb
01:00
 
4
07:00
 
4
13:00
13.7 mm
5
19:00
28.2 mm
7
warningclass
 07:26     18:16    Daglengte: 10:50 Vrijdag 28 Feb
01:00
 
5
07:00
 
4
13:00
 
5
Locatie info
Region: Noord-Brabant
Latitude: 51.4345°N
Longitude: 5.4841°E
22 masl
Postcode: 5611 SH
Temp/Neerslag /Baro Onweer/DauwpuntSneeuw
    Temp Baro 1h Neerslag Dauwpunt Wind UV BewolkingSneeuw  
 07:33     18:10    Daglengte: 10:37 Vandaag
17:00
Voelt als: 3.6°
997.0 hPa
48%
2.8°
5
Windvlaag: 2.4 m/s
87%
18:00
Voelt als: 3.5°
996.3 hPa 1.0 mm
73%
3.0°
4
Windvlaag: 1.7 m/s
90%
19:00
Voelt als: 2.2°
995.9 hPa 0.9 mm
82%
3.0°
4
Windvlaag: 0.7 m/s
90%
20:00
Voelt als: 1.4°
995.6 hPa 2.1 mm
77%
3.3°
4
Windvlaag: 0.9 m/s
89%1 cm
21:00
Voelt als: 0.9°
995.0 hPa 1.6 mm
71%
3.3°
4
Windvlaag: 3 m/s
47%1 cm
22:00
Voelt als: 1.3°
994.3 hPa
72%
3.1°
4
Windvlaag: 3.6 m/s
84%1 cm
23:00
Voelt als: 0.8°
993.6 hPa 1.4 mm
34%
2.9°
5
Windvlaag: 3.6 m/s
90%1 cm
 07:30     18:12    Daglengte: 10:42 Morgen
00:00
Voelt als: 0.1°
992.8 hPa 1.4 mm
74%
2.8°
5
Windvlaag: 3.9 m/s
86%1 cm
01:00
Voelt als: -0.7°
992.4 hPa 1.9 mm
82%
2.2°
6
Windvlaag: 3.7 m/s
81%2 cm
02:00
Voelt als: -1.8°
992.3 hPa 2.2 mm
82%
1.7°
6
Windvlaag: 3.6 m/s
83%3 cm
03:00
Voelt als: -2.6°
992.1 hPa
82%
1.1°
6
Windvlaag: 3.4 m/s
84%4 cm
04:00
Voelt als: -2.7°
991.8 hPa 2.0 mm
82%
0.8°
6
Windvlaag: 3.5 m/s
87%4 cm
05:00
Voelt als: -2.6°
992.2 hPa 2.1 mm
82%
1.4°
6
Windvlaag: 2.7 m/s
91%4 cm
06:00
Voelt als: -2.0°
992.8 hPa 2.3 mm
78%
1.6°
6
Windvlaag: 2.6 m/s
89%4 cm
07:00
Voelt als: -2.2°
993.5 hPa 2.6 mm
76%
1.2°
6
Windvlaag: 2.5 m/s
87%4 cm
08:00
Voelt als: -2.0°
994.6 hPa 2.5 mm
81%
1.4°
6
Windvlaag: 2.2 m/s
81%3 cm
09:00
Voelt als: -1.6°
995.7 hPa
82%
1.5°
6
Windvlaag: 3 m/s
82%3 cm
10:00
Voelt als: -1.1°
996.6 hPa
29%
1.4°
7
Windvlaag: 2.9 m/s
85%3 cm
11:00
Voelt als: 0.2°
997.4 hPa 2.8 mm
45%
1.6°
7
Windvlaag: 1.3 m/s
86%3 cm
12:00
Voelt als: 1.1°
998.2 hPa 2.2 mm
80%
2.5°
6
Windvlaag: 1 m/s
88%3 cm
13:00
Voelt als: 0.6°
998.9 hPa 2.3 mm
82%
2.8°
7
Windvlaag: 1.1 m/s
81%3 cm
14:00
Voelt als: 1.2°
999.4 hPa 2.2 mm
82%
2.7°
7
Windvlaag: 0.9 m/s
74%2 cm
15:00
Voelt als: 1.4°
1000.2 hPa 2.2 mm
82%
3.0°
7
Windvlaag: -0.1 m/s
77%2 cm
16:00
Voelt als: 1.1°
1001.2 hPa 2.4 mm
81%
2.3°
7
Windvlaag: 0.1 m/s
64%2 cm
17:00
Voelt als: 1.0°
1002.2 hPa 2.4 mm
73%
1.3°
6
Windvlaag: 0.5 m/s
39%2 cm
18:00
Voelt als: 0.7°
1003.1 hPa
14%
0.3°
5
Windvlaag: 0 m/s
14%2 cm
19:00
Voelt als: 0.4°
1004.0 hPa
14%
-0.4°
5
Windvlaag: 0.2 m/s
12%2 cm
20:00
Voelt als: 0.4°
1004.7 hPa
14%
-0.3°
4
Windvlaag: 0.8 m/s
18%2 cm
21:00
Voelt als: -0.5°
1005.0 hPa
25%
-0.4°
4
Windvlaag: 1.7 m/s
29%2 cm
22:00
Voelt als: -1.2°
1005.2 hPa
27%
-0.3°
4
Windvlaag: 2.8 m/s
40%2 cm
23:00
Voelt als: -1.2°
1005.5 hPa
14%
-0.3°
4
Windvlaag: 2.9 m/s
18%2 cm
 07:28     18:14    Daglengte: 10:46 Donderdag 27 Feb
00:00
Voelt als: -1.3°
1005.5 hPa
17%
-0.3°
4
Windvlaag: 2.9 m/s
40%2 cm
01:00
Voelt als: -1.8°
1005.4 hPa
16%
-0.2°
4
Windvlaag: 2.9 m/s
38%2 cm
02:00
Voelt als: -2.4°
1005.3 hPa
14%
-0.2°
4
Windvlaag: 3.2 m/s
49%2 cm
03:00
Voelt als: -2.7°
1005.0 hPa
14%
-0.5°
4
Windvlaag: 3.1 m/s
67%2 cm
04:00
Voelt als: -2.9°
1004.4 hPa
14%
-0.9°
4
Windvlaag: 3.6 m/s
55%2 cm
05:00
Voelt als: -2.8°
1003.7 hPa
14%
-1.3°
4
Windvlaag: 3.6 m/s
90%2 cm
06:00
Voelt als: -2.9°
1003.2 hPa
14%
-1.3°
4
Windvlaag: 4 m/s
91%2 cm
07:00
Voelt als: -2.9°
1002.1 hPa
15%
-1.1°
4
Windvlaag: 4.4 m/s
91%2 cm
08:00
Voelt als: -2.6°
1001.0 hPa
80%
-0.2°
4
Windvlaag: 4.3 m/s
91%2 cm
09:00
Voelt als: -1.7°
1000.0 hPa
82%
-0.2°
4
Windvlaag: 4.8 m/s
91%2 cm
10:00
Voelt als: -1.4°
997.7 hPa 2.7 mm
100%
-0.2°
5
Windvlaag: 5.3 m/s
100%2 cm
11:00
Voelt als: -2.5°
995.3 hPa 3.1 mm
100%
0.6°
6
Windvlaag: 5.8 m/s
100%2 cm
12:00
Voelt als: -2.9°
992.3 hPa 3.7 mm
100%
0.4°
5
Windvlaag: 5.1 m/s
100%3 cm
13:00
Voelt als: -2.6°
989.7 hPa 4.1 mm
100%
0.5°
5
Windvlaag: 5.4 m/s
100%3 cm
14:00
Voelt als: -2.8°
987.1 hPa 4.4 mm
100%
0.1°
5
Windvlaag: 5.8 m/s
100%4 cm
15:00
Voelt als: -2.7°
985.5 hPa 4.8 mm
100%
-0.0°
4
Windvlaag: 5.1 m/s
100%5 cm warningclass
16:00
Voelt als: -0.2°
985.1 hPa 5.1 mm
100%
1.4°
3
Windvlaag: 5.2 m/s
100%6 cm
17:00
Voelt als: -1.2°
986.7 hPa 4.7 mm
100%
1.9°
5
Windvlaag: 6.1 m/s
100%8 cm
18:00
Voelt als: -3.2°
990.3 hPa 4.7 mm
100%
1.7°
7
Windvlaag: -4.4 m/s
100%8 cm
19:00
Voelt als: -4.8°
994.4 hPa 4.5 mm
100%
0.8°
7
Windvlaag: -5 m/s
99%9 cm warningclass
20:00
Voelt als: -3.7°
997.8 hPa
100%
0.3°
6
Windvlaag: -3.3 m/s
79%9 cm
21:00
Voelt als: -2.7°
1000.5 hPa
100%
0.8°
6
Windvlaag: -3.2 m/s
79%9 cm
22:00
Voelt als: -2.1°
1002.7 hPa
95%
0.7°
5
Windvlaag: -2.4 m/s
80%9 cm
23:00
Voelt als: -1.7°
1004.8 hPa
21%
0.2°
5
Windvlaag: -2 m/s
44%8 cm
 07:26     18:16    Daglengte: 10:50 Vrijdag 28 Feb
00:00
Voelt als: -1.9°
1006.2 hPa
22%
-0.3°
5
Windvlaag: -2 m/s
24%8 cm
01:00
Voelt als: -2.1°
1007.6 hPa
21%
-0.0°
5
Windvlaag: -1 m/s
15%8 cm
02:00
Voelt als: -2.2°
1009.0 hPa
21%
0.1°
5
Windvlaag: 0.5 m/s
12%8 cm
03:00
Voelt als: -2.5°
1010.1 hPa
21%
-0.5°
4
Windvlaag: 1.5 m/s
19%8 cm
04:00
Voelt als: -2.4°
1011.0 hPa
21%
-0.4°
4
Windvlaag: 1.5 m/s
4%8 cm
05:00
Voelt als: -2.5°
1011.9 hPa
21%
-0.4°
4
Windvlaag: 2.2 m/s
5%8 cm
06:00
Voelt als: -3.3°
1012.9 hPa
21%
-0.6°
4
Windvlaag: 2.1 m/s
9%8 cm
07:00
Voelt als: -3.8°
1013.6 hPa
21%
-0.8°
4
Windvlaag: 2.3 m/s
12%8 cm
08:00
Voelt als: -2.7°
1013.7 hPa
21%
-0.6°
4
Windvlaag: 12.5 m/s
29%8 cm
09:00
Voelt als: -1.7°
1013.8 hPa
21%
-0.3°
4
Windvlaag: 12 m/s
42%8 cm
10:00
Voelt als: -0.3°
1013.9 hPa
21%
-0.0°
4
Windvlaag: 9.7 m/s
27%8 cm
11:00
Voelt als: 1.0°
1013.9 hPa
21%
0.3°
4
Windvlaag: 11.7 m/s
60%7 cm
12:00
Voelt als: 2.4°
1013.9 hPa
21%
0.5°
4
Windvlaag: 10 m/s
84%7 cm
13:00
Voelt als: 3.6°
1013.8 hPa
21%
0.4°
5
Windvlaag: 1.4 m/s
85%6 cm
14:00
Voelt als: 3.1°
1012.7 hPa 30.1 mm
100%
0.2°
5
Windvlaag: 9.5 m/s
97%6 cm
15:00
Voelt als: 2.8°
1011.9 hPa 30.1 mm
100%
0.2°
5
Windvlaag: 9 m/s
100%5 cm
16:00
Voelt als: 2.6°
1011.1 hPa 30.1 mm
100%
0.1°
5
Windvlaag: 7 m/s
98%5 cm
Temp/Neerslag /Baro Onweer/DauwpuntSneeuw
    Temp Baro Neerslag Dauwpunt Wind BewolkingSneeuw  
 07:33     18:10    Daglengte: 10:37 Vandaag
19:00
Voelt als: 2.2°
995.9 hPa 1.9 mm 3.0°
4
90%
22:00
Voelt als: 1.3°
994.3 hPa 3.7 mm 3.1°
4
84%1 cm
 07:30     18:12    Daglengte: 10:42 Morgen
01:00
Voelt als: -0.7°
992.4 hPa 4.7 mm 2.2°
6
81%2 cm
04:00
Voelt als: -2.7°
991.8 hPa 4.2 mm 0.8°
6
87%4 cm
07:00
Voelt als: -2.2°
993.5 hPa 7.0 mm 1.2°
6
87%4 cm
10:00
Voelt als: -1.1°
996.6 hPa 2.5 mm 1.4°
7
85%3 cm
13:00
Voelt als: 0.6°
998.9 hPa 7.3 mm 2.8°
7
81%3 cm
16:00
Voelt als: 1.1°
1001.2 hPa 6.8 mm 2.3°
7
64%2 cm
19:00
Voelt als: 0.4°
1004.0 hPa 2.4 mm -0.4°
5
12%2 cm
22:00
Voelt als: -1.2°
1005.2 hPa   -0.3°
4
40%2 cm
 07:28     18:14    Daglengte: 10:46 Donderdag 27 Feb
01:00
Voelt als: -1.8°
1005.4 hPa   -0.2°
4
38%2 cm
04:00
Voelt als: -2.9°
1004.4 hPa   -0.9°
4
55%2 cm
07:00
Voelt als: -2.9°
1002.1 hPa   -1.1°
4
91%2 cm
10:00
Voelt als: -1.4°
997.7 hPa 2.7 mm -0.2°
5
100%2 cm
13:00
Voelt als: -2.6°
989.7 hPa 11.0 mm 0.5°
5
100%3 cm
16:00
Voelt als: -0.2°
985.1 hPa 14.3 mm 1.4°
3
100%6 cm
19:00
Voelt als: -4.8°
994.4 hPa 13.9 mm 0.8°
7
99%9 cm warningclass
22:00
Voelt als: -2.1°
1002.7 hPa   0.7°
5
80%9 cm
 07:26     18:16    Daglengte: 10:50 Vrijdag 28 Feb
01:00
Voelt als: -2.1°
1007.6 hPa   -0.0°
5
15%8 cm
04:00
Voelt als: -2.4°
1011.0 hPa   -0.4°
4
4%8 cm
07:00
Voelt als: -3.8°
1013.6 hPa   -0.8°
4
12%8 cm
10:00
Voelt als: -0.3°
1013.9 hPa   -0.0°
4
27%8 cm
13:00
Voelt als: 3.6°
1013.8 hPa   0.4°
5
85%6 cm
16:00
Voelt als: 2.6°
1011.1 hPa 90.4 mm 0.1°
5
98%5 cm
19:00
Voelt als: 1.0°
1008.6 hPa 90.5 mm -0.3°
5
90%4 cm
22:00
Voelt als: 2.0°
1003.7 hPa 38.3 mm 2.4°
5
92%
 07:24     18:17    Daglengte: 10:53 Zaterdag 29 Feb
01:00
Voelt als: 2.4°
1000.9 hPa 38.3 mm 3.9°
5
92%
04:00
Voelt als: 4.1°
996.8 hPa 39.9 mm 5.9°
6
92%
07:00
Voelt als: 6.1°
992.8 hPa 41.7 mm 7.9°
7
92%
10:00
Voelt als: 5.3°
990.2 hPa 41.7 mm 7.2°
8
92%
13:00
Voelt als: 4.9°
987.6 hPa 41.7 mm 6.6°
9
92%
16:00
Voelt als: 3.6°
990.5 hPa 43.4 mm 3.3°
8
58%
19:00
Voelt als: 2.4°
994.1 hPa 44.1 mm -0.7°
6
24%
22:00
Voelt als: 0.5°
997.2 hPa 44.5 mm -0.1°
6
17%
 07:22     18:19    Daglengte: 10:57 Zondag 01 Maa
01:00
Voelt als: -1.3°
1000.1 hPa 44.6 mm 0.2°
7
9%
04:00
Voelt als: -1.3°
1000.2 hPa 44.6 mm 0.7°
7
49%
07:00
Voelt als: -1.3°
1000.4 hPa 45.1 mm 1.2°
7
89%
10:00
Voelt als: 1.6°
999.2 hPa 45.1 mm 1.6°
7
90%
13:00
Voelt als: 4.6°
997.9 hPa 45.2 mm 1.8°
6
91%
16:00
Voelt als: 3.5°
993.7 hPa 46.0 mm 3.1°
6
81%
19:00
Voelt als: 2.1°
989.4 hPa 46.1 mm 4.1°
7
72%
22:00
Voelt als: 1.7°
991.7 hPa 49.8 mm 4.0°
6
80%
 07:20     18:21    Daglengte: 11:01 Maandag 02 Maa
01:00
Voelt als: 1.4°
994.1 hPa 51.2 mm 3.7°
5
89%
04:00
Voelt als: -0.2°
995.0 hPa 51.2 mm 2.2°
4
87%
07:00
Voelt als: -1.1°
995.8 hPa 51.3 mm 0.9°
2
85%
10:00
Voelt als: 2.7°
995.9 hPa 51.3 mm 2.3°
2
81%
13:00
Voelt als: 6.7°
996.0 hPa 51.3 mm 3.3°
2
76%
16:00
Voelt als: 5.6°
996.8 hPa 51.3 mm 3.5°
1
78%
19:00
Voelt als: 4.5°
997.9 hPa 51.3 mm 3.6°
1
80%
22:00
Voelt als: 3.0°
1000.1 hPa 51.3 mm 2.7°
1
68%
 07:18     18:23    Daglengte: 11:05 Dinsdag 03 Maa
01:00
Voelt als: 1.4°
1002.2 hPa 51.3 mm 1.9°
1
56%
04:00
Voelt als: -0.4°
1005.2 hPa 51.3 mm 0.5°
2
58%
07:00
-0°
Voelt als: -2.3°
1008.3 hPa 51.3 mm -0.9°
2
60% warningclass
10:00
Voelt als: 0.9°
1010.6 hPa 51.3 mm 0.1°
3
54%
13:00
Voelt als: 4.8°
1012.9 hPa 51.4 mm 0.1°
4
48%
16:00
Voelt als: 3.3°
1014.3 hPa   0.4°
3
31%
19:00
Voelt als: 1.8°
1015.7 hPa 102.9 mm 0.5°
3
14%
 07:15     18:24    Daglengte: 11:09 Woensdag 04 Maa
01:00
-1°
Voelt als: -3.5°
1017.2 hPa 103.2 mm -1.7°
2
19% warningclass
07:00
-1°
Voelt als: -3.1°
1016.5 hPa 103.5 mm -1.4°
2
23% warningclass
13:00
Voelt als: 4.7°
1013.8 hPa 104.3 mm -0.9°
5
88%
19:00
Voelt als: 3.1°
1005.5 hPa 105.8 mm -0.2°
5
92%
 07:13     18:26    Daglengte: 11:13 Donderdag 05 Maa
01:00
Voelt als: 1.7°
995.5 hPa 120.2 mm 4.2°
7
87%
07:00
Voelt als: -2.3°
996.8 hPa 126.4 mm -0.7°
6
32%
13:00
Voelt als: 1.0°
994.3 hPa 126.7 mm 3.7°
8
92%
19:00
Voelt als: -0.0°
996.2 hPa 127.3 mm 0.9°
6
92%
 07:11     18:28    Daglengte: 11:17 Vrijdag 06 Maa
01:00
Voelt als: -0.1°
1010.7 hPa 127.4 mm 0.3°
5
0%
07:00
Voelt als: -1.4°
1009.7 hPa 127.4 mm 0.5°
5
0%
13:00
Voelt als: 3.7°
1005.6 hPa 0.8 mm 1.8°
6
63%
19:00
Voelt als: 2.7°
1005.3 hPa 0.8 mm 1.9°
3
73%
 07:09     18:30    Daglengte: 11:21 Zaterdag 07 Maa
01:00
Voelt als: 0.6°
1004.2 hPa 1.1 mm 1.7°
4
73%
07:00
Voelt als: 0.0°
1003.4 hPa 1.2 mm 1.5°
4
71%
13:00
Voelt als: 4.6°
1003.5 hPa 1.1 mm 2.6°
5
70%
19:00
Voelt als: 4.0°
1004.0 hPa 1.5 mm 2.9°
2
71%
 07:06     18:31    Daglengte: 11:25 Zondag 08 Maa
01:00
Voelt als: 2.1°
1006.7 hPa 0.8 mm 2.1°
2
57%
07:00
Voelt als: 1.4°
1008.5 hPa 0.8 mm 1.2°
2
52%
13:00
Voelt als: 6.1°
1010.7 hPa 0.5 mm 2.3°
2
60%
19:00
Voelt als: 5.6°
1011.9 hPa 0.7 mm 1.8°
1
60%
 07:04     18:33    Daglengte: 11:29 Maandag 09 Maa
01:00
Voelt als: 3.4°
1012.8 hPa 0.3 mm 1.5°
1
51%
07:00
Voelt als: 2.7°
1012.8 hPa 0.5 mm 0.8°
1
48%
13:00
Voelt als: 7.7°
1013.8 hPa 0.7 mm 1.4°
1
56%
19:00
Voelt als: 4.7°
1015.4 hPa 0.6 mm 1.6°
2
58%
 07:02     18:35    Daglengte: 11:33 Dinsdag 10 Maa
01:00
Voelt als: 2.4°
1017.6 hPa 0.1 mm 1.1°
1
33%
07:00
Voelt als: 1.5°
1018.5 hPa 0.1 mm 0.7°
1
36%
13:00
Voelt als: 7.0°
1019.2 hPa 0.3 mm 2.1°
2
53%
19:00
Voelt als: 4.8°
1019.9 hPa 0.4 mm 2.0°
2
53%
 07:00     18:37    Daglengte: 11:37 Woensdag 11 Maa
01:00
Voelt als: 3.4°
1021.2 hPa   1.2°
1
37%
07:00
Voelt als: 2.5°
1021.1 hPa   0.3°
0
36%
13:00
Voelt als: 8.4°
1020.9 hPa 0.2 mm 0.9°
1
38%
  CAPE Lifted Index Hail Supercell Tornado SRH 3km CL BTM PRES CL TOP PRES Swiss DWD icon SMHI TS
 07:33     18:10    Daglengte: 10:37 Vandaag
17:00 49 J/kg 0.5 K 0 % 0 % 0 % 0 m²/s² 0 0 1.82 80
18:00 57 J/kg 0.7 K 0 % 0 % 0 % 0 m²/s² 0 0 1.27 3
19:00 57 J/kg 2.5 K 0 % 0 % 0 % 0 m²/s² 0 0 3.16 80
20:00 0 J/kg 2.4 K 0 % 0 % 0 % 0 m²/s² 0 0 3.12 80
21:00 0 J/kg 2.1 K 0 % 0 % 0 % 0 m²/s² 0 0 4.74 3
22:00 0 J/kg 0.6 K 0 % 0 % 0 % 0 m²/s² 0 0 4.92 3
23:00 0 J/kg -0.3 K 0 % 0 % 0 % 0 m²/s² 0 0 3.12 3
 07:30     18:12    Daglengte: 10:42 Morgen
00:00 2 J/kg 0.7 K 0 % 0 % 0 % 0 m²/s² 0 0 1.36 80
01:00 1 J/kg 1.0 K 0 % 0 % 0 % 0 m²/s² 0 0 1.54 3
02:00 0 J/kg 0.7 K 0 % 0 % 0 % 0 m²/s² 0 0 1.24 80
03:00 0 J/kg 0.2 K 0 % 0 % 0 % 0 m²/s² 0 0 0.74 61
04:00 0 J/kg -0.5 K 0 % 0 % 0 % 0 m²/s² 0 0 0.58 85
05:00 135 J/kg -0.8 K 0 % 0 % 0 % 0 m²/s² 0 0 0.13 61
06:00 189 J/kg -1.2 K 0 % 0 % 0 % 0 m²/s² 0 0 -0.12 61
07:00 97 J/kg -0.8 K 0 % 0 % 0 % 0 m²/s² 0 0 3.25 3
08:00 117 J/kg -0.9 K 0 % 0 % 0 % 0 m²/s² 0 0 1.62 3
09:00 145 J/kg -1.0 K 0 % 0 % 0 % 0 m²/s² 0 0 1.25 3
10:00 217 J/kg -1.1 K 0 % 0 % 0 % 0 m²/s² 0 0 0.79 3
11:00 293 J/kg -1.4 K 0 % 0 % 0 % 0 m²/s² 0 0 0.25 3
12:00 315 J/kg -1.6 K 0 % 0 % 0 % 0 m²/s² 0 0 0.86 3
13:00 377 J/kg -2.0 K 0 % 0 % 0 % 0 m²/s² 0 0 -0.5 80
14:00 392 J/kg -2.2 K 0 % 0 % 0 % 0 m²/s² 0 0 -0.31 80
15:00 200 J/kg -1.4 K 0 % 0 % 0 % 0 m²/s² 0 0 -0.92 80
16:00 351 J/kg -1.7 K 0 % 0 % 0 % 0 m²/s² 0 0 -0.11 80
17:00 299 J/kg -1.4 K 0 % 0 % 0 % 0 m²/s² 0 0 0.85 80
18:00 245 J/kg -1.2 K 0 % 0 % 0 % 0 m²/s² 0 0 1.98 2
19:00 191 J/kg -0.8 K 0 % 0 % 0 % 0 m²/s² 0 0 1.99 1
20:00 100 J/kg 0.1 K 0 % 0 % 0 % 0 m²/s² 0 0 1.51 1
21:00 0 J/kg 0.6 K 0 % 0 % 0 % 0 m²/s² 0 0 2.91 2
22:00 0 J/kg 0.7 K 0 % 0 % 0 % 0 m²/s² 0 0 2.2 2
23:00 72 J/kg 2.9 K 0 % 0 % 0 % 0 m²/s² 0 0 5.42 1
 07:28     18:14    Daglengte: 10:46 Donderdag 27 Feb
00:00 114 J/kg 4.3 K 0 % 0 % 0 % 0 m²/s² 0 0 8.41 1
01:00 48 J/kg 5.7 K 0 % 0 % 0 % 0 m²/s² 0 0 10.41 2
02:00 0 J/kg 7.8 K 0 % 0 % 0 % 0 m²/s² 0 0 11.01 1
03:00 0 J/kg 8.0 K 0 % 0 % 0 % 0 m²/s² 0 0 10.55 2
04:00 0 J/kg 7.8 K 0 % 0 % 0 % 0 m²/s² 0 0 10.2 1
05:00 0 J/kg 8.9 K 0 % 0 % 0 % 0 m²/s² 0 0 10.82 3
06:00 0 J/kg 9.5 K 0 % 0 % 0 % 0 m²/s² 0 0 10.37 3
07:00 0 J/kg 9.5 K 0 % 0 % 0 % 0 m²/s² 0 0 10.07 3
08:00 0 J/kg 10.0 K 0 % 0 % 0 % 0 m²/s² 0 0 10.63 3
09:00 0 J/kg 10.8 K 0 % 0 % 0 % 0 m²/s² 0 0 11.37 61
10:00 0 J/kg 10.4 K 0 % 0 % 0 % 0 m²/s² 0 0 10.91 61
11:00 0 J/kg 10.9 K 0 % 0 % 0 % 0 m²/s² 0 0 11.41 61
12:00 0 J/kg 10.4 K 0 % 0 % 0 % 0 m²/s² 0 0 10.88 61
13:00 0 J/kg 9.9 K 0 % 0 % 0 % 0 m²/s² 0 0 10.38 73
14:00 1 J/kg 9.3 K 0 % 0 % 0 % 0 m²/s² 0 0 9.75 73
15:00 0 J/kg 8.3 K 0 % 0 % 0 % 0 m²/s² 0 0 8.69 73
16:00 0 J/kg 8.8 K 0 % 0 % 0 % 0 m²/s² 0 0 9.28 73
17:00 0 J/kg 7.2 K 0 % 0 % 0 % 0 m²/s² 0 0 7.74 73
18:00 0 J/kg 5.5 K 0 % 0 % 0 % 0 m²/s² 0 0 6.1 77
19:00 0 J/kg 3.5 K 0 % 0 % 0 % 0 m²/s² 0 0 4.07 71
20:00 0 J/kg 2.2 K 0 % 0 % 0 % 0 m²/s² 0 0 2.77 61
21:00 0 J/kg 1.8 K 0 % 0 % 0 % 0 m²/s² 0 0 2.49 61
22:00 23 J/kg 1.8 K 0 % 0 % 0 % 0 m²/s² 0 0 3.51 3
23:00 15 J/kg 2.1 K 0 % 0 % 0 % 0 m²/s² 0 0 7.83 2
 07:26     18:16    Daglengte: 10:50 Vrijdag 28 Feb
00:00 0 J/kg 3.2 K 0 % 0 % 0 % 0 m²/s² 0 0 8.3 1
01:00 0 J/kg 2.9 K 0 % 0 % 0 % 0 m²/s² 0 0 8.99 1
02:00 12 J/kg 5.2 K 0 % 0 % 0 % 0 m²/s² 0 0 14.44 0
03:00 0 J/kg 5.9 K 0 % 0 % 0 % 0 m²/s² 0 0 14.69 0
04:00 0 J/kg 7.3 K 0 % 0 % 0 % 0 m²/s² 0 0 14.98 1
05:00 0 J/kg 8.7 K 0 % 0 % 0 % 0 m²/s² 0 0 14.82 1
06:00 0 J/kg 9.5 K 0 % 0 % 0 % 0 m²/s² 0 0 14.63 2
07:00 0 J/kg 9.7 K 0 % 0 % 0 % 0 m²/s² 0 0 14.44 2
08:00 0 J/kg 9.4 K 0 % 0 % 0 % 0 m²/s² 0 0 14.05 3
09:00 0 J/kg 10.5 K 0 % 0 % 0 % 0 m²/s² 0 0 15.57 3
10:00 0 J/kg 11.3 K 0 % 0 % 0 % 0 m²/s² 0 0 16.85 2
11:00 0 J/kg 11.2 K 0 % 0 % 0 % 0 m²/s² 0 0 16.45 3
12:00 4 J/kg 10.8 K 0 % 0 % 0 % 0 m²/s² 0 0 15.39 3
13:00 0 J/kg 11.8 K 0 % 0 % 0 % 0 m²/s² 0 0 15.19 3
14:00 0 J/kg 11.5 K 0 % 0 % 0 % 0 m²/s² 0 0 13.75
15:00 8 J/kg 11.0 K 0 % 0 % 0 % 0 m²/s² 0 0 12.02
16:00 26 J/kg 11.5 K 0 % 0 % 0 % 0 m²/s² 0 0 12.07
Temp Baro Wind Neerslag
  EWN Forecast EWN WRFDA DWD ICON FMI HIRLAM MET Norway GFSWXSIM
 07:33     18:10    Daglengte: 10:37 Vandaag
19:00 5.5° 995.9 hPa 4.5 m/s 1.9 mm 5.7° 993.9 hPa 7.5 m/s 5.6 mm 5.6° 996.4 hPa 4.3 m/s -0.9 mm 6.5° 994.7 hPa 3.9 m/s 0.0 mm 4.8° 996.1 hPa 4.4 m/s 5.1° 995.8 hPa 4.8 m/s
22:00 4.6° 994.3 hPa 4.1 m/s 3.7 mm 1.6° 991.4 hPa 3.3 m/s 18.4 mm 5.0° 994.7 hPa 3.9 m/s 1.2 mm 5.1° 993.2 hPa 5.2 m/s 0.0 mm 3.5° 994.6 hPa 3.6 m/s 3.9° 994.4 hPa 3.7 m/s
 07:30     18:12    Daglengte: 10:42 Morgen
01:00 3.8° 992.4 hPa 6.3 m/s 4.7 mm 0.6° 989.4 hPa 4.5 m/s 20.7 mm 4.1° 993.0 hPa 3.1 m/s 0.4 mm 4.1° 990.0 hPa 8.8 m/s 0.0 mm 3.6° 992.8 hPa 6.5 m/s 3.2° 993.3 hPa 7.4 m/s
04:00 2.3° 991.8 hPa 6.3 m/s 4.2 mm 1.4° 987.9 hPa 5.6 m/s 29.9 mm 1.4° 993.2 hPa 4.2 m/s 2.3 mm 2.9° 989.8 hPa 7.4 m/s 0.0 mm 2.3° 992.1 hPa 6.3 m/s 2.2° 992.1 hPa 4.3 m/s
07:00 2.6° 993.5 hPa 6.2 m/s 7.0 mm 3.1° 989.9 hPa 6.5 m/s 33.1 mm 2.5° 994.8 hPa 4.7 m/s 0.6 mm 3.2° 991.9 hPa 6.6 m/s 0.0 mm 2.5° 993.8 hPa 5.9 m/s 3.1° 993.3 hPa 6.4 m/s
10:00 3.7° 996.6 hPa 6.9 m/s 2.5 mm 4.5° 992.6 hPa 8.9 m/s 34.4 mm 3.7° 997.7 hPa 4.7 m/s 0.1 mm 4.6° 994.4 hPa 6.7 m/s 0.0 mm 3.6° 997.2 hPa 7.0 m/s 4.9° 996.2 hPa 7.2 m/s
13:00 4.9° 998.9 hPa 6.6 m/s 7.3 mm 4.7° 995.6 hPa 7.1 m/s 35.6 mm 5.5° 999.7 hPa 5.2 m/s 0.4 mm 6.3° 996.3 hPa 7.8 m/s 0.0 mm 4.8° 999.8 hPa 6.4 m/s 5.8° 999.1 hPa 7.2 m/s
16:00 5.4° 1001.2 hPa 6.8 m/s 6.8 mm 5.9° 997.7 hPa 8.0 m/s 40.1 mm 5.5° 1002.3 hPa 5.5 m/s 1.6 mm 6.2° 998.3 hPa 8.5 m/s 0.0 mm 5.3° 1001.9 hPa 6.1 m/s 6.1° 1001.3 hPa 7.9 m/s
19:00 4.1° 1004.0 hPa 4.5 m/s 2.4 mm 3.2° 1000.2 hPa 4.0 m/s 42.1 mm 4.3° 1004.9 hPa 3.1 m/s 0.2 mm 5.0° 1001.4 hPa 5.5 m/s 0.0 mm 4.1° 1004.4 hPa 4.5 m/s 4.3° 1004.0 hPa 4.9 m/s
22:00 2.7° 1005.2 hPa 4.3 m/s 0.0 mm 1.7° 1001.5 hPa 5.5 m/s 42.5 mm 3.2° 1006.5 hPa 2.8 m/s 0.0 mm 3.5° 1003.0 hPa 5.3 m/s 0.0 mm 2.7° 1005.4 hPa 4.3 m/s 3.5° 1005.8 hPa 4.3 m/s
 07:28     18:14    Daglengte: 10:46 Donderdag 27 Feb
01:00 2.2° 1005.4 hPa 4.4 m/s 0.0 mm 3.5° 1002.5 hPa 4.6 m/s 46.0 mm 2.2° 1006.7 hPa 2.6 m/s 0.0 mm 3.0° 1003.1 hPa 5.8 m/s 0.0 mm 2.0° 1005.6 hPa 4.2 m/s 3.2° 1006.7 hPa 5.3 m/s
04:00 1.3° 1004.4 hPa 4.3 m/s 0.0 mm 1.0° 1001.4 hPa 5.1 m/s 46.1 mm 1.4° 1005.4 hPa 2.9 m/s 0.0 mm 2.2° 1003.4 hPa 5.0 m/s 0.0 mm 1.3° 1004.5 hPa 4.3 m/s 2.4° 1005.6 hPa 4.4 m/s
07:00 1.2° 1002.1 hPa 4.1 m/s 0.0 mm 1.5° 999.2 hPa 6.0 m/s 46.1 mm 1.8° 1001.8 hPa 3.3 m/s 0.0 mm 1.2° 1003.4 hPa 4.9 m/s 0.0 mm 1.1° 1002.1 hPa 3.5 m/s 1.9° 1003.7 hPa 5.1 m/s
10:00 2.6° 997.7 hPa 4.6 m/s 2.7 mm 2.8° 995.4 hPa 7.1 m/s 47.9 mm 2.2° 997.2 hPa 4.4 m/s 1.2 mm 2.8° 999.5 hPa 4.0 m/s 2.5° 999.2 hPa 6.9 m/s
13:00 2.0° 989.7 hPa 5.3 m/s 11.0 mm 2.0° 988.4 hPa 7.1 m/s 52.9 mm 0.6° 987.8 hPa 5.4 m/s 5.6 mm 3.2° 995.5 hPa 3.2 m/s 1.7° 991.3 hPa 8.5 m/s
16:00 2.7° 985.1 hPa 2.9 m/s 14.3 mm 0.5° 983.5 hPa 6.3 m/s 65.7 mm 0.2° 982.3 hPa 2.1 m/s 8.3 mm 3.2° 995.8 hPa 2.1 m/s 1.1° 983.4 hPa 7.3 m/s
19:00 1.0° 994.4 hPa 7.3 m/s 13.9 mm 0.4° 992.0 hPa 6.6 m/s 81.9 mm 0.8° 994.1 hPa 6.0 m/s 3.1 mm 1.9° 1000.7 hPa 6.6 m/s 0.7° 990.6 hPa 10.1 m/s
22:00 2.1° 1002.7 hPa 4.7 m/s 0.0 mm 2.6° 998.5 hPa 6.6 m/s 87.7 mm 1.7° 1002.7 hPa 4.2 m/s 0.4 mm 2.1° 1006.6 hPa 4.2 m/s 1.5° 1001.2 hPa 5.7 m/s
 07:26     18:16    Daglengte: 10:50 Vrijdag 28 Feb
01:00 2.1° 1007.6 hPa 4.6 m/s 0.0 mm 1.8° 1003.1 hPa 6.2 m/s 90.4 mm 2.1° 1007.7 hPa 3.7 m/s 0.0 mm 1.9° 1010.1 hPa 4.4 m/s 1.6° 1006.5 hPa 5.3 m/s
04:00 1.8° 1011.0 hPa 4.4 m/s 0.0 mm 1.3° 1006.5 hPa 7.0 m/s 90.4 mm 1.4° 1011.4 hPa 3.1 m/s 0.0 mm 1.7° 1012.0 hPa 4.1 m/s 1.5° 1009.8 hPa 5.7 m/s
07:00 0.5° 1013.6 hPa 4.1 m/s 0.0 mm -0.9° 1009.2 hPa 5.5 m/s 90.4 mm 1.2° 1014.0 hPa 2.7 m/s 0.0 mm 0.4° 1014.1 hPa 4.1 m/s 0.7° 1012.5 hPa 5.2 m/s
10:00 3.4° 1013.9 hPa 4.3 m/s 0.0 mm 3.0° 1011.0 hPa 5.7 m/s 90.4 mm 3.2° 1015.5 hPa 3.3 m/s 0.0 mm 3.6° 1014.0 hPa 4.3 m/s 1.6° 1014.1 hPa 4.8 m/s
13:00 6.6° 1013.8 hPa 4.5 m/s 0.0 mm 5.2° 1011.9 hPa 5.7 m/s 90.4 mm 6.8° 1014.9 hPa 3.8 m/s 0.0 mm 6.8° 1013.8 hPa 4.5 m/s 3.4° 1014.7 hPa 3.9 m/s
16:00 5.9° 1011.1 hPa 4.6 m/s 90.4 mm 5.7° 1011.4 hPa 3.5 m/s 90.4 mm 5.9° 1011.0 hPa 4.8 m/s 4.5° 1013.8 hPa 1.9 m/s
19:00 4.7° 1008.6 hPa 5.0 m/s 90.5 mm 3.2° 1010.3 hPa 4.4 m/s 90.5 mm 5.0° 1008.3 hPa 5.1 m/s 3.4° 1013.1 hPa 2.6 m/s
22:00 5.5° 1003.7 hPa 5.0 m/s 38.3 mm 5.7° 1003.0 hPa 5.1 m/s 2.9° 1011.3 hPa 3.9 m/s 38.3 mm
 07:24     18:17    Daglengte: 10:53 Zaterdag 29 Feb
01:00 5.8° 1000.9 hPa 5.1 m/s 38.3 mm 6.1° 1000.3 hPa 5.1 m/s 3.1° 1007.7 hPa 4.7 m/s 38.3 mm
04:00 7.6° 996.8 hPa 6.1 m/s 39.9 mm 7.8° 996.2 hPa 6.2 m/s 4.3° 1003.0 hPa 4.7 m/s 39.9 mm
07:00 9.3° 992.8 hPa 7.1 m/s 41.7 mm 9.6° 992.1 hPa 7.4 m/s 6.6° 1000.0 hPa 4.2 m/s 41.7 mm
10:00 9.0° 990.2 hPa 8.0 m/s 41.7 mm 9.1° 989.7 hPa 8.2 m/s 8.0° 996.8 hPa 5.0 m/s 41.7 mm
13:00 8.8° 987.6 hPa 9.0 m/s 41.7 mm 8.5° 987.2 hPa 9.1 m/s 12.1° 992.1 hPa 7.9 m/s 41.7 mm
16:00 7.5° 990.5 hPa 7.6 m/s 43.4 mm 7.3° 990.7 hPa 7.3 m/s 9.8° 988.7 hPa 10.1 m/s 43.4 mm
19:00 6.1° 994.1 hPa 5.9 m/s 44.1 mm 6.1° 994.2 hPa 5.6 m/s 6.4° 992.9 hPa 8.9 m/s 44.1 mm
22:00 4.8° 997.2 hPa 6.4 m/s 44.5 mm 4.8° 997.2 hPa 6.2 m/s 5.4° 997.5 hPa 8.5 m/s 44.5 mm
 07:22     18:19    Daglengte: 10:57 Zondag 01 Maa
01:00 3.5° 1000.1 hPa 6.9 m/s 44.6 mm 3.5° 1000.1 hPa 6.8 m/s 4.1° 999.6 hPa 8.5 m/s 44.6 mm
04:00 3.6° 1000.2 hPa 7.1 m/s 44.6 mm 3.6° 1000.2 hPa 7.0 m/s 4.0° 1000.4 hPa 7.9 m/s 44.6 mm
07:00 3.7° 1000.4 hPa 7.3 m/s 45.1 mm 3.7° 1000.3 hPa 7.2 m/s 3.7° 1001.3 hPa 8.1 m/s 45.1 mm
10:00 5.7° 999.2 hPa 6.6 m/s 45.1 mm 5.8° 999.0 hPa 6.4 m/s 4.8° 1001.4 hPa 8.8 m/s 45.1 mm
13:00 7.8° 997.9 hPa 5.8 m/s 45.2 mm 7.9° 997.7 hPa 5.6 m/s 7.1° 1000.2 hPa 7.6 m/s 45.2 mm
16:00 7.1° 993.7 hPa 6.2 m/s 46.0 mm 7.1° 993.2 hPa 6.3 m/s 7.6° 998.5 hPa 5.3 m/s 46.0 mm
19:00 6.2° 989.4 hPa 6.8 m/s 46.1 mm 6.2° 988.8 hPa 7.0 m/s 6.2° 996.3 hPa 4.6 m/s 46.1 mm
22:00 5.6° 991.7 hPa 5.8 m/s 49.8 mm 5.6° 991.3 hPa 6.0 m/s 5.4° 995.6 hPa 3.0 m/s 49.8 mm
 07:20     18:21    Daglengte: 11:01 Maandag 02 Maa
01:00 5.1° 994.1 hPa 5.1 m/s 51.2 mm 5.0° 993.8 hPa 5.1 m/s 5.6° 997.8 hPa 5.2 m/s 51.2 mm
04:00 3.1° 995.0 hPa 3.5 m/s 51.2 mm 3.0° 994.5 hPa 3.4 m/s 3.8° 999.7 hPa 4.5 m/s 51.2 mm
07:00 1.2° 995.8 hPa 2.0 m/s 51.3 mm 1.1° 995.3 hPa 1.8 m/s 2.8° 1000.8 hPa 4.7 m/s 51.3 mm
10:00 4.3° 995.9 hPa 1.8 m/s 51.3 mm 4.2° 995.5 hPa 1.8 m/s 4.8° 1000.2 hPa 2.6 m/s 51.3 mm
13:00 7.5° 996.0 hPa 1.6 m/s 51.3 mm 7.4° 995.7 hPa 1.7 m/s 8.7° 999.7 hPa 0.5 m/s 51.3 mm
16:00 6.4° 996.8 hPa 1.4 m/s 51.3 mm 6.2° 996.7 hPa 1.4 m/s 9.0° 998.7 hPa 2.5 m/s 51.3 mm
19:00 5.0° 997.9 hPa 1.1 m/s 51.3 mm 4.9° 997.6 hPa 1.0 m/s 6.2° 1000.8 hPa 2.8 m/s 51.3 mm
22:00 3.9° 1000.1 hPa 1.3 m/s 51.3 mm 3.8° 999.7 hPa 1.1 m/s 5.0° 1004.0 hPa 2.5 m/s 51.3 mm
 07:18     18:23    Daglengte: 11:05 Dinsdag 03 Maa
01:00 2.7° 1002.2 hPa 1.4 m/s 51.3 mm 2.6° 1001.8 hPa 1.3 m/s 3.8° 1006.4 hPa 2.8 m/s 51.3 mm
04:00 1.3° 1005.2 hPa 1.6 m/s 51.3 mm 1.1° 1005.0 hPa 1.5 m/s 3.0° 1008.3 hPa 2.2 m/s 51.3 mm
07:00 -0.2° 1008.3 hPa 1.7 m/s 51.3 mm -0.4° 1008.1 hPa 1.7 m/s 2.3° 1010.7 hPa 1.7 m/s 51.3 mm
10:00 3.6° 1010.6 hPa 2.9 m/s 51.3 mm 3.5° 1010.5 hPa 3.0 m/s 5.6° 1012.7 hPa 1.7 m/s 51.3 mm
13:00 7.4° 1012.9 hPa 4.2 m/s 51.4 mm 7.3° 1012.8 hPa 4.3 m/s 9.0° 1013.5 hPa 3.0 m/s 51.4 mm
16:00 5.9° 1014.3 hPa 3.5 m/s 51.4 mm 5.6° 1014.5 hPa 3.5 m/s 9.2° 1012.3 hPa 4.0 m/s 51.4 mm
19:00 4.2° 1015.7 hPa 2.6 m/s 51.5 mm 3.9° 1016.1 hPa 2.6 m/s 7.0° 1011.4 hPa 3.1 m/s 51.5 mm
 07:15     18:24    Daglengte: 11:09 Woensdag 04 Maa
01:00 -0.6° 1017.2 hPa 2.2 m/s 51.7 mm -1.2° 1018.0 hPa 1.9 m/s 5.6° 1008.7 hPa 6.0 m/s 51.7 mm
07:00 -0.8° 1016.5 hPa 1.8 m/s 51.8 mm -1.5° 1017.5 hPa 1.4 m/s 7.5° 1006.1 hPa 6.7 m/s 51.8 mm
13:00 7.6° 1013.8 hPa 4.8 m/s 52.3 mm 7.4° 1014.5 hPa 4.8 m/s 10.4° 1006.3 hPa 4.9 m/s 52.3 mm
19:00 6.5° 1005.5 hPa 5.2 m/s 53.5 mm 6.3° 1006.0 hPa 5.4 m/s 8.2° 1000.1 hPa 2.4 m/s 53.5 mm
 07:13     18:26    Daglengte: 11:13 Donderdag 05 Maa
01:00 5.9° 995.5 hPa 6.9 m/s 62.0 mm 5.7° 995.5 hPa 6.6 m/s 7.9° 995.6 hPa 10.2 m/s 62.0 mm
07:00 2.4° 996.8 hPa 5.8 m/s 63.2 mm 2.3° 996.0 hPa 5.6 m/s 3.7° 1006.1 hPa 7.7 m/s 63.2 mm
13:00 5.5° 994.3 hPa 7.6 m/s 63.4 mm 5.4° 992.8 hPa 7.6 m/s 7.2° 1010.5 hPa 7.7 m/s 63.4 mm
19:00 4.2° 996.2 hPa 5.8 m/s 63.7 mm 4.1° 994.9 hPa 5.9 m/s 5.2° 1010.9 hPa 4.4 m/s 63.7 mm
 07:11     18:28    Daglengte: 11:17 Vrijdag 06 Maa
01:00 3.9° 1010.7 hPa 5.2 m/s 63.7 mm 3.9° 1010.7 hPa 5.2 m/s 63.7 mm
07:00 3.0° 1009.7 hPa 5.5 m/s 63.7 mm 3.0° 1009.7 hPa 5.5 m/s 63.7 mm
13:00 7.1° 1005.6 hPa 5.6 m/s 0.8 mm
19:00 5.4° 1005.3 hPa 3.4 m/s 0.8 mm
 07:09     18:30    Daglengte: 11:21 Zaterdag 07 Maa
01:00 4.2° 1004.2 hPa 4.5 m/s 1.1 mm
07:00 3.6° 1003.4 hPa 4.3 m/s 1.2 mm
13:00 7.5° 1003.5 hPa 4.5 m/s 1.1 mm
19:00 5.7° 1004.0 hPa 2.2 m/s 1.5 mm
 07:06     18:31    Daglengte: 11:25 Zondag 08 Maa
01:00 3.9° 1006.7 hPa 2.0 m/s 0.8 mm
07:00 2.8° 1008.5 hPa 1.6 m/s 0.8 mm
13:00 7.5° 1010.7 hPa 2.2 m/s 0.5 mm
19:00 5.6° 1011.9 hPa 0.7 m/s 0.7 mm
 07:04     18:33    Daglengte: 11:29 Maandag 09 Maa
01:00 3.6° 1012.8 hPa 0.9 m/s 0.3 mm
07:00 2.7° 1012.8 hPa 0.6 m/s 0.5 mm
13:00 7.7° 1013.8 hPa 1.0 m/s 0.7 mm
19:00 5.8° 1015.4 hPa 1.6 m/s 0.6 mm
 07:02     18:35    Daglengte: 11:33 Dinsdag 10 Maa
01:00 3.6° 1017.6 hPa 1.5 m/s 0.1 mm
07:00 2.8° 1018.5 hPa 1.5 m/s 0.1 mm
13:00 8.2° 1019.2 hPa 2.2 m/s 0.3 mm
19:00 6.3° 1019.9 hPa 2.0 m/s 0.4 mm
 07:00     18:37    Daglengte: 11:37 Woensdag 11 Maa
01:00 3.8° 1021.2 hPa 1.0 m/s 0.0 mm
07:00 2.5° 1021.1 hPa 0.3 m/s 0.0 mm
13:00 8.4° 1020.9 hPa 0.6 m/s 0.2 mm
FMI Hirlam - 7.5 km EWN WRFDA - 12 km DWD ICON - 7 km GFS - 25 km Basiskaart






























































Updatetijd (Europe/Brussels) Resolutie Lengte Stap
FMI Hirlam 13:00, 19:00, 01:00, 07:00 7.5 km 49h 1h
EWN WRFDA 14:15, 20:15, 02:15, 08:15 12 km 73h 1h
DWD ICON 10:45, 16:45, 22:45, 04:45 7 km 75h 1h
GFS 13:00, 19:00, 01:00, 07:00 25 km 237h 3h
30+ mm
25-30 mm
20-25 mm
15-20 mm
10-15 mm
6-10 mm
4-6 mm
2-4 mm
1-2 mm
0.5-1 mm
0.2-0.5 mm
0.1-0.2 mm
30+ mm
25-30 mm
20-25 mm
15-20 mm
10-15 mm
6-10 mm
4-6 mm
2-4 mm
1-2 mm
0.5-1 mm
0.2-0.5 mm
0.1-0.2 mm
Sneeuwval
Natte sneeuw
Hagel
Vorst
30+ mm
25-30 mm
20-25 mm
15-20 mm
10-15 mm
6-10 mm
4-6 mm
2-4 mm
1-2 mm
0.5-1 mm
0.2-0.5 mm
0.1-0.2 mm
Sneeuwval
Natte sneeuw
Hagel
Vorst
Onweer
50 mm
40 mm
30 mm
26 mm
22 mm
18 mm
14 mm
10 mm
9 mm
8 mm
7 mm
6 mm
5 mm
4.5 mm
4 mm
3.5 mm
3 mm
2.5 mm
2 mm
1.5 mm
1 mm
0.8 mm
0.6 mm
0.4 mm
0.2 mm
0.05 mm
35°
30°
25°
20°
15°
10°
-5°
-10°
-15°
-20°
-25°
-30°
-35°
33> m/s
29 m/s
25 m/s
21 m/s
17 m/s
14 m/s
11 m/s
8 m/s
5 m/s
3 m/s
0 m/s
2600 J/kg
2400 J/kg
2200 J/kg
2000 J/kg
1800 J/kg
1600 J/kg
1400 J/kg
1200 J/kg
1000 J/kg
800 J/kg
600 J/kg
400 J/kg
200 J/kg
70 dBZ
65 dBZ
60 dBZ
55 dBZ
50 dBZ
45 dBZ
40 dBZ
35 dBZ
30 dBZ
25 dBZ
20 dBZ
15 dBZ
10 dBZ
5 dBZ
-1 K
-2 K
-3 K
-4 K
-5 K
-6 K
-7 K
-8 K
-9 K
950 m²/s²
900 m²/s²
850 m²/s²
800 m²/s²
750 m²/s²
700 m²/s²
650 m²/s²
600 m²/s²
550 m²/s²
500 m²/s²
450 m²/s²
400 m²/s²
350 m²/s²
300 m²/s²
250 m²/s²
200 m²/s²
150 m²/s²
100 m²/s²
46 m/s
44 m/s
42 m/s
40 m/s
38 m/s
36 m/s
34 m/s
32 m/s
30 m/s
28 m/s
26 m/s
24 m/s
22 m/s
20 m/s
16 m/s
12 m/s
8 m/s
4 m/s
30 m/s
28 m/s
26 m/s
24 m/s
22 m/s
20 m/s
18 m/s
16 m/s
14 m/s
12 m/s
10 m/s
8 m/s
6 m/s
4 m/s
2 m/s
3.0
2.8
2.6
2.4
2.2
2.0
1.8
1.6
1.4
1.2
1.0
0.8
0.6
0.4
0.2
15
14
13
12
11
10
9
8
7
6
5
4
3
2
1
90%
80%
70%
60%
50%
40%
30%
20%
10%
42
40
38
36
34
32
30
28
26
24
22
20
18
16
14
12
90+ cm
80-90 cm
70-80 cm
60-70 cm
50-60 cm
40-50 cm
30-40 cm
20-30 cm
10-20 cm
1-10 cm
Sneeuwval
Natte sneeuw
Regen
>120 mm
115 mm
110 mm
105 mm
100 mm
95 mm
90 mm
85 mm
80 mm
75 mm
70 mm
65 mm
60 mm
55 mm
50 mm
45 mm
45 mm
40 mm
35 mm
30 mm
25 mm
20 mm
15 mm
10 mm
5 mm
0.1 mm
960 hPa
880 hPa
800 hPa
720 hPa
640 hPa
560 hPa
584 gpdm
568 gpdm
552 gpdm
536 gpdm
520 gpdm
504 gpdm
488 gpdm
Extreem zwaar Noodweer Kans op onweer
15% 15% 5% 50% 15%

Dag




Kaart






35°
30°
25°
20°
15°
10°
-5°
-10°
-15°
-20°
-25°
-30°
-35°
33> m/s
29 m/s
25 m/s
21 m/s
17 m/s
14 m/s
11 m/s
8 m/s
5 m/s
3 m/s
0 m/s
Extreem zwaar Noodweer Kans op onweer
15% 15% 5% 50% 15%
>120 mm
115 mm
110 mm
105 mm
100 mm
95 mm
90 mm
85 mm
80 mm
75 mm
70 mm
65 mm
60 mm
55 mm
50 mm
45 mm
45 mm
40 mm
35 mm
30 mm
25 mm
20 mm
15 mm
10 mm
5 mm
0.1 mm
Onweer risico kaarten - De groene en gele kleur geeft de kans op onweer aan binnen 40 km van een punt. Oranje, rood en violet hebben hetzelfde niveau zoals je het ziet op estofex.org waaronder ook de kans op hagel en supercells.

dBZ - dBZ staat voor decibel ten opzichte van Z.

Cape - Convective available potential energy (CAPE), is de totale hoeveelheid energie die een luchtpakketje nodig heeft om zover mogelijk te stijgen in de atmosfeer.

K Index - K-Index wordt berekend door de Vertical Totals (VT) en het versc